This is the latest recevied weather packets stored in our database for station/object N3LF. If no packets are shown the sender has not sent any weather packets the latest 10 day(s).
| Time | Temp. | Humidity | Pressure | Rain* | Wind** | Luminosity | Snow |
|---|---|---|---|---|---|---|---|
| 1788308314 | 30° C | 72% | 1019.3 hPa | 0 mm | - | 3 W/m² | - |
| 1788308009 | 30.56° C | 71% | 1019.2 hPa | 0 mm | - | 5 W/m² | - |
| 1788307705 | 31.11° C | 69% | 1019.4 hPa | 0 mm | - | 8 W/m² | - |
| 1788307404 | 31.11° C | 67% | 1019.4 hPa | 0 mm | - | 10 W/m² | - |
| 1788307099 | 31.67° C | 64% | 1019.4 hPa | 0 mm | - | 14 W/m² | - |
| 1788306799 | 32.22° C | 63% | 1019.6 hPa | 0 mm | - | 17 W/m² | - |
| 1788306500 | 32.78° C | 60% | 1019.6 hPa | 0 mm | - | 20 W/m² | - |
| 1788306194 | 33.89° C | 57% | 1019.4 hPa | 0 mm | - | 23 W/m² | - |
| 1788305889 | 34.44° C | 56% | 1019.4 hPa | 0 mm | - | 26 W/m² | - |
| 1788305585 | 35° C | 53% | 1019.5 hPa | 0 mm | - | 30 W/m² | - |
| 1788305281 | 35° C | 53% | 1019.7 hPa | 0 mm | - | 40 W/m² | - |
| 1788304975 | 35° C | 53% | 1019.5 hPa | 0 mm | - | 47 W/m² | - |
| 1788304671 | 35.56° C | 53% | 1019.7 hPa | 0 mm | - | 55 W/m² | - |
| 1788304368 | 35.56° C | 51% | 1019.7 hPa | 0 mm | - | 62 W/m² | - |
| 1788304063 | 36.67° C | 51% | 1019.6 hPa | 0 mm | - | 70 W/m² | - |
| 1788303763 | 36.67° C | 51% | 1019.6 hPa | 0 mm | - | 79 W/m² | - |
| 1788303459 | 36.67° C | 50% | 1019.5 hPa | 0 mm | - | 88 W/m² | - |
| 1788303158 | 36.11° C | 51% | 1019.7 hPa | 0 mm | - | 98 W/m² | - |
| 1788302854 | 36.11° C | 50% | 1019.6 hPa | 0 mm | - | 107 W/m² | - |
| 1788302550 | 36.11° C | 50% | 1019.4 hPa | 0 mm | - | 119 W/m² | - |
| 1788302246 | 36.11° C | 50% | 1019.5 hPa | 0 mm | - | 129 W/m² | - |
| 1788301940 | 36.67° C | 50% | 1019.4 hPa | 0 mm | - | 135 W/m² | - |
| 1788301637 | 36.11° C | 49% | 1019.6 hPa | 0 mm | - | 146 W/m² | - |
| 1788301333 | 36.11° C | 48% | 1019.5 hPa | 0 mm | - | 171 W/m² | - |
| 1788301028 | 36.67° C | 51% | 1019.4 hPa | 0 mm | - | 182 W/m² | - |
* Rain latest hour (hover to see other rain measurements)
** Current wind speed in m/s (hover to see current wind gust speed)